Regional Weather Roundup
Issued by NWS Kansas City/Pleasant Hill, MO

Home | Current Version | Previous Version | Text Only | Print | Product List | Glossary On
Versions: 1 2 3 4 5 6 7 8 9 10 11 12 13 14 15 16 17 18 19 20 21 22 23 24 25 26 27 28 29 30 31 32 33 34 35 36 37 38 39 40 41 42 43 44 45 46 47 48 49 50
862
ASUS43 KEAX 290610
RWREAX

WEATHER ROUNDUP FOR EASTERN KANSAS AND NORTHWEST MISSOURI
NATIONAL WEATHER SERVICE KANSAS CITY/PLEASANT HILL MO
100 AM CDT WED MAR 29 2017

KSZ040-057-103>105-MOZ028-029-037-043-290700-
...KANSAS CITY METROPOLITAN AREA...

CITY           SKY/WX    TMP DP  RH WIND       PRES   REMARKS
K.C. INTL      CLOUDY    52  49  89 E16G26    29.96F
6HR MIN TEMP:  52; 6HR MAX TEMP:  53;

K.C. DOWNTOWN  CLOUDY    54  49  83 E14       29.94F
6HR MIN TEMP:  53; 6HR MAX TEMP:  55;

LEES SUMMIT    CLOUDY    53  50  89 E13G33    29.96R
6HR MIN TEMP:  52; 6HR MAX TEMP:  53;

OLATHE - IXD   CLOUDY    53  49  86 E20G28    29.90F
6HR MIN TEMP:  52; 6HR MAX TEMP:  53;

OLATHE - OJC   CLOUDY    52  50  93 E16G31    29.89F
6HR MIN TEMP:  52; 6HR MAX TEMP:  52;

LAWRENCE       CLOUDY    54  50  86 NE18      29.92F

$$

MOZ001>008-011>017-020>025-030>033-038>040-044>046-053-054-290700-
...NORTHERN AND CENTRAL MISSOURI...

CITY           SKY/WX    TMP DP  RH WIND       PRES   REMARKS
ST. JOSEPH     CLOUDY    52  48  86 E14G23    30.00F
6HR MIN TEMP:  52; 6HR MAX TEMP:  53;

MOSBY          CLOUDY    52  46  82 E15G22    29.97F
WARRENSBURG    CLOUDY    52  46  82 E14G20    29.96F
WHITEMAN AFB   CLOUDY    53  53 100 E16G25    29.94F
6HR MIN TEMP:  53; 6HR MAX TEMP:  56;

CLINTON        CLOUDY    52  48  87 E13       29.95F
SEDALIA        CLOUDY    54  49  83 E17G26    29.99F
6HR MIN TEMP:  54; 6HR MAX TEMP:  57;

WARSAW         NOT AVBL
CHILLICOTHE      N/A     51  48  89 E8        30.06F
6HR MIN TEMP:  51; 6HR MAX TEMP:  54;

KIRKSVILLE     CLOUDY    49  46  90 E9        30.09F
6HR MIN TEMP:  49; 6HR MAX TEMP:  52;


$$

MOZ041-047>049-056>058-063>065-088>090-097-290700-
...EASTERN AND SOUTHERN MISSOURI...

CITY           SKY/WX    TMP DP  RH WIND       PRES   REMARKS
ST. LOUIS INTL CLOUDY    54  46  74 E9        30.09R
6HR MIN TEMP:  54; 6HR MAX TEMP:  58;

SPIRIT OF STL  CLOUDY    53  48  83 E6        30.08R
COLUMBIA       CLOUDY    53  49  86 E13       30.05F
JEFFERSON CITY CLOUDY    56  48  74 E8        30.06S
ROLLA          CLOUDY    52  48  86 E10       30.04S
SPRINGFIELD    CLOUDY    57  49  74 SE15G23   29.90R
BRANSON        CLOUDY    57  52  82 SE17G26   29.93R
JOPLIN         LGT RAIN  60  54  80 E16G25    29.80F
WEST PLAINS    CLOUDY    54  49  83 E9        30.00F

$$

IAZ060-094-KSZ022-034>040-054-083-096-NEZ052-066-093-290700-
...KANSAS...SOUTHEAST NEBRASKA AND IOWA...

CITY           SKY/WX    TMP DP  RH WIND       PRES   REMARKS
TOPEKA         LGT RAIN  53  51  93 NE12      29.96S
6HR MIN TEMP:  53; 6HR MAX TEMP:  54; 6HR PCP:  0.01;

MANHATTAN      TSTM      51  49  92 NE13      29.97F FOG
EMPORIA        HVY RAIN  50  50 100 NE28G37   29.82S FOG
CHANUTE        LGT RAIN  56  51  84 E20G28    29.75F
WICHITA        TSTM      51  51 100 N20       29.87R FOG
OMAHA          CLOUDY    49  41  74 E9        30.10R
LINCOLN        LGT RAIN  46  44  93 NE9       30.08F FOG
FALLS CITY     CLOUDY    51  47  86 NE7       30.02F
LAMONI         CLOUDY    49  44  83 E9G17     30.07F
DES MOINES     CLOUDY    49  45  86 E9        30.11F

$$





USA.gov is the U.S. government's official web portal to all federal, state and local government web resources and services.